Tracking 32139 objects as of 18-Nov-2025
HD Live streaming from Space Station
objects crossing your sky now

ONEWEB-0293

Track ONEWEB-0293 now!
10-day predictions
ONEWEB-0293 is classified as:


NORAD ID: 49082
Int'l Code: 2021-075H
Perigee: 1,199.5 km
Apogee: 1,202.2 km
Inclination: 87.9 °
Period: 109.3 minutes
Semi major axis: 7571 km
RCS: Unknown
Launch date: August 21, 2021
Source: United Kingdom (UK)
Launch site: TYURATAM MISSILE AND SPACE COMPLEX (TTMTR)
Your satellite tracking list
Your tracking list is empty




NASA's NSSDC Master Catalog

Two Line Element Set (TLE):
1 49082U 21075H   25322.16195865  .00000116  00000-0  26667-3 0  9991
2 49082  87.9135  47.8345 0001763  98.0835 262.0497 13.17646893205846
Source of the keplerian elements: AFSPC